Simultaneous Nadir Overpasses (SNOs) Predictions

Prediction of SNOs between AQUA and NPP Satellite Orbit:

Table of predicted SNOs for the next 14.0 days since TLE Epoch: 6/30/2017
Index Date (AQUA) Time (AQUA) Lat,Lon (AQUA) SZA (AQUA ) Date (NPP) Time (NPP) Lat,Lon (NPP) SZA (NPP ) Distance(km) Time Diff (sec)
1 07/03/2017 14:05:12 75.10,-154.85 76.08 07/03/2017 14:04:42 75.10,-154.81 76.09 1.03 30
2 07/03/2017 14:54:21 -76.04, 15.49 105.02 07/03/2017 14:55:08 -76.04, 15.43 105.05 1.60 47
3 07/06/2017 06:21:32 75.55, -37.72 75.82 07/06/2017 06:21:27 75.56, -37.67 75.81 1.62 5
4 07/06/2017 07:10:43 -76.39, 132.48 105.17 07/06/2017 07:11:55 -76.38, 132.44 105.22 0.96 72
5 07/08/2017 21:48:57 -74.50, -92.25 102.67 07/08/2017 21:48:00 -74.50, -92.25 102.63 0.08 57
6 07/08/2017 22:37:52 75.99, 79.47 75.61 07/08/2017 22:38:12 76.00, 79.56 75.57 2.60 20
7 07/11/2017 14:05:14 -75.06, 25.03 102.95 07/11/2017 14:04:42 -75.06, 25.06 102.93 0.95 32
8 07/11/2017 14:54:20 75.99,-164.67 75.97 07/11/2017 14:55:06 75.98,-164.73 75.95 2.00 46
9 07/14/2017 06:21:33 -75.55, 142.26 103.13 07/14/2017 06:21:26 -75.56, 142.34 103.14 2.31 7




NCC Satellite Simultaneous Nadir Overpasses (SNOs) Prediction Service
